Home > Weather > Geneva > Past weeks

Flag for Switzerland Past Weather in Geneva, Geneva, Switzerland — Yesterday and Last 2 Weeks

Now
77 °F

Warm.


Feels Like: 79 °F
Forecast: 57 / 80 °F
Wind: 3 mph from Southeast

Location: Geneve-Cointrin

Current Time: Jul 27, 2016 at 1:36:44 PM

Latest Report: Jul 27, 2016 at 12:00 PM


Visibility: N/A

Pressure: 30.04 "Hg

Humidity: 56%

Dew Point: 60 °F

Location of GenevaLocation

Past Weather in Geneva — Graph

°F

Geneva Temperature Yesterday

Maximum temperature yesterday: 81 °F (at 3:00 PM)
Minimum temperature yesterday: 62 °F (at 6:00 AM)
Average temperature yesterday: 72 °F

High & Low Weather Summary for the Past Weeks

 TemperatureHumidityPressure
High90 °F (Jul 20, 5:00 PM)96% (Jul 13, 2:00 AM)30.31 "Hg (Jul 13, 2:00 AM)
Low47 °F (Jul 15, 6:00 AM)21% (Jul 18, 6:00 PM)29.90 "Hg (Jul 21, 4:00 PM)
Average68 °F69%30.09 "Hg
* Reported Jul 12 12:00 PM — Jul 27 12:00 PM, Geneva, Weather by CustomWeather, © 2016

Note: Actual official high and low records may vary slightly from our data, if they occured in-between our weather recording intervals... More about our weather records

Advertising

Geneva Weather History for the Previous 24 Hours

Scroll right to see more
 ConditionsComfort  
Time TempWeatherWind HumidityBarometerVisibility
12:00 PM
Wed, Jul 27
77 °FWarm.3 mph56%30.04 "HgN/A
11:00 AM75 °FPartly sunny.3 mph60%30.06 "Hg19 mi
10:00 AM73 °FMild.2 mph70%30.06 "HgN/A
9:00 AM70 °FMild.1 mph76%30.07 "HgN/A
8:00 AM68 °FPartly sunny.1 mph80%30.08 "Hg22 mi
7:00 AM64 °FMild.1 mph89%30.08 "HgN/A
6:00 AM63 °FMild.1 mph91%30.08 "HgN/A
5:00 AM68 °FPassing clouds.1 mph80%30.07 "Hg22 mi
4:00 AM65 °FMild.2 mph87%30.08 "HgN/A
3:00 AM65 °FMild.1 mph86%30.08 "HgN/A
2:00 AM67 °FPassing clouds.1 mph83%30.08 "Hg22 mi
1:00 AM69 °FMild.3 mph76%30.08 "HgN/A
12:00 AM68 °FMild.2 mph79%30.09 "HgN/A
11:00 PM
Tue, Jul 26
72 °FPassing clouds.5 mph66%30.07 "Hg25 mi
10:00 PM73 °FMild.6 mph63%30.06 "HgN/A
9:00 PM75 °FMild.5 mph59%30.04 "HgN/A
8:00 PM79 °FScattered clouds.5 mph53%30.03 "Hg25 mi
7:00 PM78 °FWarm.6 mph56%30.03 "HgN/A
6:00 PM81 °FWarm.9 mph52%30.02 "HgN/A
5:00 PM81 °FScattered clouds.9 mph50%30.02 "Hg25 mi
4:00 PM80 °FWarm.8 mph47%30.03 "HgN/A
3:00 PM81 °FWarm.6 mph48%30.04 "HgN/A
2:00 PM79 °FPassing clouds.10 mph51%30.06 "Hg25 mi
1:00 PM78 °FWarm.9 mph56%30.07 "HgN/A
Weather by CustomWeather, © 2016

See weather overviewHow to use our weather pages